| time (UTC) | temp C | wind direction | speed KPH | gust KPH | rain 1hr cm | rain 24hr cm | rain mn cm | humidity % | barometer mb |
| 20260901103406 | 26 | 199 | 0.0 | 3.2 | 0.00 | 0.00 | 0.00 | 67 | 1018.6 |
| 20260901102844 | 26 | 178 | 0.0 | 3.2 | 0.00 | 0.00 | 0.00 | 67 | 1018.4 |
| 20260901101404 | 26 | 150 | 0.0 | 3.2 | 0.00 | 0.00 | 0.00 | 67 | 1018.3 |
| 20260901100404 | 25 | 159 | 0.0 | 1.6 | 0.00 | 0.00 | 0.00 | 68 | 1018.3 |
| 20260901095402 | 25 | 245 | 0.0 | 1.6 | 0.00 | 0.00 | 0.00 | 68 | 1018.3 |
| 20260901094402 | 25 | 245 | 0.0 | 0.0 | 0.00 | 0.00 | 0.00 | 68 | 1018.3 |
| 20260901093403 | 25 | 245 | 0.0 | 1.6 | 0.00 | 0.00 | 0.00 | 67 | 1018.3 |
| 20260901092840 | 26 | 245 | 0.0 | 0.0 | 0.00 | 0.00 | 0.00 | 67 | 1018.2 |
| 20260901090851 | 26 | 245 | 0.0 | 0.0 | 0.00 | 0.00 | 0.00 | 67 | 1018.2 |
| 20260901085400 | 26 | 245 | 0.0 | 0.0 | 0.00 | 0.00 | 0.00 | 67 | 1018.1 |
| 20260901083358 | 27 | 184 | 1.6 | 4.8 | 0.00 | 0.00 | 0.00 | 63 | 1018.0 |
| 20260901082355 | 27 | 158 | 3.2 | 4.8 | 0.00 | 0.00 | 0.00 | 63 | 1018.1 |
| 20260901081351 | 27 | 157 | 4.8 | 6.4 | 0.00 | 0.00 | 0.00 | 63 | 1017.9 |
| 20260901080350 | 27 | 161 | 3.2 | 6.4 | 0.00 | 0.00 | 0.00 | 63 | 1017.9 |
| 20260901075351 | 27 | 157 | 3.2 | 6.4 | 0.00 | 0.00 | 0.00 | 62 | 1018.0 |
| 20260901074349 | 26 | 146 | 1.6 | 6.4 | 0.00 | 0.00 | 0.00 | 62 | 1017.8 |
| 20260901073343 | 27 | 133 | 1.6 | 4.8 | 0.00 | 0.00 | 0.00 | 61 | 1017.9 |
| 20260901072346 | 27 | 166 | 1.6 | 4.8 | 0.00 | 0.00 | 0.00 | 60 | 1018.2 |
| 20260901071823 | 27 | 177 | 3.2 | 6.4 | 0.00 | 0.00 | 0.00 | 59 | 1018.0 |
| 20260901070339 | 27 | 182 | 3.2 | 6.4 | 0.00 | 0.00 | 0.00 | 59 | 1018.0 |
| 20260901065338 | 27 | 150 | 1.6 | 9.7 | 0.00 | 0.00 | 0.00 | 59 | 1017.9 |
| 20260901064340 | 26 | 151 | 1.6 | 3.2 | 0.00 | 0.00 | 0.00 | 60 | 1017.8 |
| 20260901063337 | 26 | 151 | 0.0 | 1.6 | 0.00 | 0.00 | 0.00 | 59 | 1017.8 |
| 20260901062815 | 26 | 151 | 1.6 | 3.2 | 0.00 | 0.00 | 0.00 | 59 | 1017.9 |
| 20260901061335 | 27 | 151 | 0.0 | 1.6 | 0.00 | 0.00 | 0.00 | 59 | 1017.8 |
| 20260901060337 | 27 | 151 | 0.0 | 3.2 | 0.00 | 0.00 | 0.00 | 57 | 1018.0 |
| 20260901055334 | 27 | 123 | 3.2 | 6.4 | 0.00 | 0.00 | 0.00 | 56 | 1017.9 |
| 20260901054336 | 28 | 121 | 4.8 | 9.7 | 0.00 | 0.00 | 0.00 | 54 | 1017.8 |
| 20260901053335 | 28 | 124 | 4.8 | 9.7 | 0.00 | 0.00 | 0.00 | 54 | 1017.7 |
| 20260901052335 | 28 | 138 | 6.4 | 12.9 | 0.00 | 0.00 | 0.00 | 53 | 1017.6 |
| 20260901051822 | 28 | 130 | 6.4 | 12.9 | 0.00 | 0.00 | 0.00 | 52 | 1017.7 |
| 20260901045336 | 28 | 133 | 6.4 | 12.9 | 0.00 | 0.00 | 0.00 | 51 | 1017.5 |
| 20260901044332 | 28 | 140 | 4.8 | 6.4 | 0.00 | 0.00 | 0.00 | 50 | 1017.6 |
| 20260901043332 | 28 | 134 | 4.8 | 6.4 | 0.00 | 0.00 | 0.00 | 50 | 1017.6 |
| 20260901042333 | 29 | 159 | 4.8 | 8.0 | 0.00 | 0.00 | 0.00 | 49 | 1017.5 |
| 20260901041332 | 29 | 134 | 6.4 | 11.3 | 0.00 | 0.00 | 0.00 | 48 | 1017.4 |
| 20260901040823 | 29 | 138 | 6.4 | 9.7 | 0.00 | 0.00 | 0.00 | 47 | 1017.5 |
| 20260901035333 | 29 | 140 | 6.4 | 9.7 | 0.00 | 0.00 | 0.00 | 46 | 1017.5 |
| 20260901034333 | 30 | 136 | 6.4 | 12.9 | 0.00 | 0.00 | 0.00 | 46 | 1017.5 |
| 20260901033815 | 30 | 134 | 6.4 | 11.3 | 0.00 | 0.00 | 0.00 | 45 | 1017.4 |
| 20260901032332 | 30 | 121 | 6.4 | 12.9 | 0.00 | 0.00 | 0.00 | 44 | 1017.4 |
| 20260901031330 | 30 | 174 | 8.0 | 12.9 | 0.00 | 0.00 | 0.00 | 44 | 1017.4 |
| 20260901030330 | 30 | 131 | 8.0 | 12.9 | 0.00 | 0.00 | 0.00 | 44 | 1017.3 |
| 20260901025330 | 30 | 157 | 8.0 | 14.5 | 0.00 | 0.00 | 0.00 | 43 | 1017.3 |
| 20260901024333 | 30 | 137 | 8.0 | 12.9 | 0.00 | 0.00 | 0.00 | 44 | 1017.2 |
| 20260901023330 | 30 | 130 | 8.0 | 12.9 | 0.00 | 0.00 | 0.00 | 44 | 1017.0 |
| 20260901022816 | 31 | 146 | 6.4 | 12.9 | 0.00 | 0.00 | 0.00 | 44 | 1016.8 |
| 20260901021331 | 31 | 128 | 6.4 | 11.3 | 0.00 | 0.00 | 0.00 | 43 | 1016.7 |
| 20260901020332 | 31 | 119 | 8.0 | 14.5 | 0.00 | 0.00 | 0.00 | 43 | 1016.5 |
| 20260901015329 | 31 | 134 | 8.0 | 11.3 | 0.00 | 0.00 | 0.00 | 42 | 1016.5 |
| 20260901014330 | 31 | 163 | 6.4 | 11.3 | 0.00 | 0.00 | 0.00 | 41 | 1016.3 |
| 20260901013329 | 32 | 134 | 6.4 | 11.3 | 0.00 | 0.00 | 0.00 | 40 | 1016.3 |
| 20260901012329 | 32 | 131 | 6.4 | 9.7 | 0.00 | 0.00 | 0.00 | 40 | 1016.2 |
| 20260901011328 | 32 | 140 | 6.4 | 11.3 | 0.00 | 0.00 | 0.00 | 40 | 1016.2 |
| 20260901010331 | 32 | 140 | 8.0 | 16.1 | 0.00 | 0.00 | 0.00 | 40 | 1016.0 |
| 20260901005329 | 33 | 121 | 4.8 | 9.7 | 0.00 | 0.00 | 0.00 | 38 | 1015.9 |
| 20260901004330 | 33 | 167 | 4.8 | 9.7 | 0.00 | 0.00 | 0.00 | 38 | 1015.7 |
| 20260901003330 | 33 | 160 | 6.4 | 11.3 | 0.00 | 0.00 | 0.00 | 37 | 1015.6 |
| 20260901002324 | 33 | 171 | 4.8 | 11.3 | 0.00 | 0.00 | 0.00 | 37 | 1015.6 |
| 20260901001809 | 34 | 174 | 6.4 | 9.7 | 0.00 | 0.00 | 0.00 | 36 | 1015.5 |
| 20260901000325 | 35 | 184 | 9.7 | 14.5 | 0.00 | 0.00 | 0.00 | 34 | 1015.5 |
| 20260831235804 | 35 | 180 | 9.7 | 14.5 | 0.00 | 0.00 | 0.00 | 33 | 1015.5 |
| 20260831234322 | 35 | 176 | 8.0 | 14.5 | 0.00 | 0.00 | 0.00 | 34 | 1015.6 |
| 20260831233322 | 35 | 194 | 6.4 | 11.3 | 0.00 | 0.00 | 0.00 | 33 | 1015.6 |
| 20260831232756 | 35 | 221 | 6.4 | 16.1 | 0.00 | 0.00 | 0.00 | 33 | 1015.6 |
| 20260831231322 | 35 | 183 | 9.7 | 16.1 | 0.00 | 0.00 | 0.00 | 32 | 1015.6 |
| 20260831230323 | 36 | 174 | 9.7 | 19.3 | 0.00 | 0.00 | 0.00 | 30 | 1015.7 |
| 20260831224321 | 36 | 157 | 9.7 | 24.1 | 0.00 | 0.00 | 0.00 | 30 | 1015.7 |
| 20260831223803 | 36 | 146 | 9.7 | 17.7 | 0.00 | 0.00 | 0.00 | 28 | 1015.9 |
| 20260831222321 | 36 | 165 | 8.0 | 16.1 | 0.00 | 0.00 | 0.00 | 29 | 1015.9 |
| 20260831221322 | 36 | 211 | 14.5 | 25.7 | 0.00 | 0.00 | 0.00 | 29 | 1016.0 |
| 20260831220321 | 36 | 203 | 6.4 | 17.7 | 0.00 | 0.00 | 0.00 | 30 | 1016.0 |
| 20260831215321 | 37 | 202 | 12.9 | 20.9 | 0.00 | 0.00 | 0.00 | 28 | 1016.0 |
| 20260831214806 | 37 | 173 | 9.7 | 24.1 | 0.00 | 0.00 | 0.00 | 28 | 1016.0 |
| 20260831213322 | 37 | 153 | 6.4 | 14.5 | 0.00 | 0.00 | 0.00 | 29 | 1016.0 |
| 20260831212323 | 37 | 134 | 4.8 | 17.7 | 0.00 | 0.00 | 0.00 | 29 | 1016.2 |
| 20260831211322 | 37 | 84 | 6.4 | 17.7 | 0.00 | 0.00 | 0.00 | 28 | 1016.2 |
| 20260831210322 | 37 | 178 | 8.0 | 25.7 | 0.00 | 0.00 | 0.00 | 29 | 1016.1 |
| 20260831205321 | 37 | 306 | 4.8 | 12.9 | 0.00 | 0.00 | 0.00 | 30 | 1016.4 |
| 20260831204321 | 37 | 320 | 3.2 | 12.9 | 0.00 | 0.00 | 0.00 | 32 | 1016.4 |
| 20260831203321 | 36 | 178 | 8.0 | 20.9 | 0.00 | 0.00 | 0.00 | 32 | 1016.7 |
| 20260831202322 | 37 | 180 | 9.7 | 24.1 | 0.00 | 0.00 | 0.00 | 31 | 1016.7 |
| 20260831201319 | 37 | 169 | 9.7 | 27.4 | 0.00 | 0.00 | 0.00 | 31 | 1016.8 |
| 20260831200319 | 37 | 238 | 3.2 | 12.9 | 0.00 | 0.00 | 0.00 | 31 | 1016.8 |
| 20260831195318 | 37 | 118 | 9.7 | 22.5 | 0.00 | 0.00 | 0.00 | 31 | 1017.0 |
| 20260831194319 | 36 | 119 | 4.8 | 12.9 | 0.00 | 0.00 | 0.00 | 33 | 1017.0 |
| 20260831193316 | 36 | 195 | 3.2 | 9.7 | 0.00 | 0.00 | 0.00 | 35 | 1017.2 |
| 20260831192315 | 35 | 180 | 4.8 | 14.5 | 0.00 | 0.00 | 0.00 | 35 | 1017.4 |
| 20260831191317 | 35 | 192 | 9.7 | 19.3 | 0.00 | 0.00 | 0.00 | 34 | 1017.5 |
| 20260831190315 | 36 | 184 | 8.0 | 30.6 | 0.00 | 0.00 | 0.00 | 33 | 1017.6 |
| 20260831185317 | 36 | 154 | 8.0 | 20.9 | 0.00 | 0.00 | 0.00 | 33 | 1017.6 |
| 20260831184315 | 35 | 165 | 6.4 | 16.1 | 0.00 | 0.00 | 0.00 | 35 | 1017.8 |
| 20260831183319 | 35 | 292 | 6.4 | 11.3 | 0.00 | 0.00 | 0.00 | 35 | 1017.8 |
| 20260831182316 | 36 | 148 | 6.4 | 22.5 | 0.00 | 0.00 | 0.00 | 34 | 1018.1 |
| 20260831181309 | 36 | 278 | 4.8 | 14.5 | 0.00 | 0.00 | 0.00 | 33 | 1018.3 |
| 20260831180308 | 36 | 299 | 4.8 | 12.9 | 0.00 | 0.00 | 0.00 | 36 | 1018.4 |
| 20260831175308 | 36 | 284 | 3.2 | 9.7 | 0.00 | 0.00 | 0.00 | 39 | 1018.6 |
| 20260831174308 | 35 | 217 | 4.8 | 14.5 | 0.00 | 0.00 | 0.00 | 38 | 1018.8 |
| 20260831173753 | 36 | 145 | 4.8 | 12.9 | 0.00 | 0.00 | 0.00 | 37 | 1018.8 |
| 20260831172756 | 35 | 162 | 8.0 | 17.7 | 0.00 | 0.00 | 0.00 | 42 | 1019.1 |
| 20260831171309 | 34 | 155 | 6.4 | 14.5 | 0.00 | 0.00 | 0.00 | 41 | 1019.1 |
| 20260831170308 | 34 | 198 | 6.4 | 19.3 | 0.00 | 0.00 | 0.00 | 42 | 1019.3 |
| 20260831165308 | 35 | 203 | 4.8 | 16.1 | 0.00 | 0.00 | 0.00 | 41 | 1019.4 |
| 20260831164303 | 34 | 247 | 4.8 | 19.3 | 0.00 | 0.00 | 0.00 | 42 | 1019.4 |
| 20260831163303 | 34 | 204 | 4.8 | 12.9 | 0.00 | 0.00 | 0.00 | 43 | 1019.4 |
| 20260831162305 | 34 | 229 | 9.7 | 25.7 | 0.00 | 0.00 | 0.00 | 43 | 1019.5 |
| 20260831161303 | 33 | 191 | 9.7 | 22.5 | 0.00 | 0.00 | 0.00 | 44 | 1019.4 |
| 20260831160301 | 33 | 82 | 6.4 | 19.3 | 0.00 | 0.00 | 0.00 | 45 | 1019.4 |
| 20260831155301 | 33 | 175 | 9.7 | 17.7 | 0.00 | 0.00 | 0.00 | 46 | 1019.3 |
| 20260831154302 | 33 | 192 | 8.0 | 20.9 | 0.00 | 0.00 | 0.00 | 47 | 1019.3 |
| 20260831153301 | 32 | 209 | 9.7 | 24.1 | 0.00 | 0.00 | 0.00 | 48 | 1019.3 |
| 20260831152301 | 32 | 155 | 12.9 | 20.9 | 0.00 | 0.00 | 0.00 | 49 | 1019.4 |
| 20260831151303 | 31 | 166 | 11.3 | 19.3 | 0.00 | 0.00 | 0.00 | 50 | 1019.3 |
| 20260831150740 | 31 | 157 | 12.9 | 24.1 | 0.00 | 0.00 | 0.00 | 51 | 1019.2 |
| 20260831145306 | 31 | 202 | 14.5 | 22.5 | 0.00 | 0.00 | 0.00 | 51 | 1019.2 |
| 20260831144303 | 31 | 206 | 11.3 | 19.3 | 0.00 | 0.00 | 0.00 | 52 | 1019.1 |
| 20260831143300 | 30 | 175 | 12.9 | 19.3 | 0.00 | 0.00 | 0.00 | 54 | 1019.2 |
| 20260831141302 | 30 | 193 | 11.3 | 24.1 | 0.00 | 0.00 | 0.00 | 57 | 1019.2 |
| 20260831140302 | 29 | 168 | 8.0 | 16.1 | 0.00 | 0.00 | 0.00 | 58 | 1019.3 |
| 20260831135258 | 28 | 195 | 4.8 | 11.3 | 0.00 | 0.00 | 0.00 | 62 | 1019.3 |
| 20260831134258 | 27 | 158 | 3.2 | 6.4 | 0.00 | 0.00 | 0.00 | 63 | 1019.2 |
| 20260831133301 | 27 | 169 | 1.6 | 6.4 | 0.00 | 0.00 | 0.00 | 64 | 1018.9 |
| 20260831132258 | 26 | 162 | 0.0 | 0.0 | 0.00 | 0.00 | 0.00 | 66 | 1018.9 |
| 20260831131258 | 26 | 162 | 0.0 | 0.0 | 0.00 | 0.00 | 0.00 | 67 | 1018.8 |
| 20260831130256 | 26 | 162 | 0.0 | 0.0 | 0.00 | 0.00 | 0.00 | 68 | 1018.6 |
| 20260831125254 | 25 | 162 | 0.0 | 0.0 | 0.00 | 0.00 | 0.00 | 68 | 1018.6 |
| 20260831124257 | 25 | 162 | 0.0 | 0.0 | 0.00 | 0.00 | 0.00 | 68 | 1018.4 |
| 20260831123254 | 25 | 162 | 0.0 | 0.0 | 0.00 | 0.00 | 0.00 | 68 | 1018.3 |
| 20260831122253 | 25 | 162 | 0.0 | 0.0 | 0.00 | 0.00 | 0.00 | 68 | 1018.1 |
| 20260831120252 | 24 | 193 | 0.0 | 0.0 | 0.00 | 0.00 | 0.00 | 69 | 1018.0 |
| 20260831115252 | 24 | 163 | 0.0 | 0.0 | 0.00 | 0.00 | 0.00 | 67 | 1017.8 |
| 20260831114251 | 25 | 163 | 0.0 | 0.0 | 0.00 | 0.00 | 0.00 | 66 | 1017.7 |
| 20260831113252 | 25 | 163 | 0.0 | 0.0 | 0.00 | 0.00 | 0.00 | 66 | 1017.6 |
| 20260831112252 | 25 | 163 | 0.0 | 1.6 | 0.00 | 0.00 | 0.00 | 66 | 1017.4 |
| 20260831111253 | 25 | 163 | 0.0 | 0.0 | 0.00 | 0.00 | 0.00 | 65 | 1017.4 |
| 20260831110246 | 25 | 163 | 0.0 | 0.0 | 0.00 | 0.00 | 0.00 | 64 | 1017.3 |
| 20260831104246 | 25 | 155 | 1.6 | 4.8 | 0.00 | 0.00 | 0.00 | 63 | 1017.3 |